Weather History for KVJI - March, 2012

Change the Weather History Date:

Thursday, March 22, 2012

  Actual Average (KTRI) Record (KTRI)
Temperature  
Mean Temperature 66 °F 48 °F  
Max Temperature 77 °F 61 °F 81 °F (1938)
Min Temperature 55 °F 36 °F 16 °F (1986)
Degree Days  
Heating Degree Days 0 17  
Month to date heating degree days 430  
Since 1 July heating degree days 3812  
Cooling Degree Days 1 0  
Month to date cooling degree days 0  
Year to date cooling degree days 0  
Growing Degree Days 16 (Base 50)    
Moisture  
Dew Point 51 °F    
Average Humidity 61    
Maximum Humidity 84    
Minimum Humidity 34    
Precipitation  
Precipitation 0.02 in 0.12 in 0.86 in (1968)
Month to date precipitation 2.42  
Year to date precipitation 9.24  
Snow  
Snow 0.00 in 0.00 in - ()
Month to date snowfall 1.1  
Since 1 July snowfall 11.9  
Snow Depth -    
Sea Level Pressure  
Sea Level Pressure 30.22 in    
Wind  
Wind Speed 3 mph (ESE)    
Max Wind Speed 10 mph    
Max Gust Speed -    
Visibility 10 miles    
Events Rain    
T = Trace of Precipitation, MM = Missing Value Source: NWS Daily Summary

Daily Weather History Graph

Daily Weather History Graph

Search for Another Location

Airport or City:

Trip Planner

Search our weather history database for the weather conditions in past years. The results will help you decide how hot, cold, wet, or windy it might be!

Date:

Astronomy

Mar. 22, 2012 Rise Set
Actual Time 7:28 AM EDT 7:42 PM EDT
Civil Twilight 7:02 AM EDT 8:07 PM EDT
Nautical Twilight 6:32 AM EDT 8:38 PM EDT
Astronomical Twilight 6:01 AM EDT 9:09 PM EDT
Moon 7:07 AM EDT (3/22) 8:03 PM EDT (3/22)
Length of Visible Light 13h 05m
Length of Day
12h 14m
New Moon, 0% of the Moon is Illuminated
Mar 22
New Moon
Mar 30
First Quarter
Apr 6
Full
Apr 13
Last Quarter
Apr 21
New

Hourly Weather History & Observations

Time (EDT) Temp. Dew Point Humidity Pressure Visibility Wind Dir Wind Speed Gust Speed Precip Events Conditions
12:15 AM 60.1 °F 50.5 °F 71% 30.25 in 10.0 mi East 3.5 mph - N/A   Unknown
12:55 AM 60.1 °F 50.9 °F 72% 30.25 in 10.0 mi East 5.8 mph - N/A   Unknown
1:15 AM 60.3 °F 51.3 °F 72% 30.25 in 10.0 mi East 3.5 mph - N/A   Unknown
1:35 AM 60.1 °F 51.3 °F 73% 30.25 in 10.0 mi Calm Calm - N/A   Unknown
1:55 AM 59.2 °F 50.9 °F 74% 30.24 in 10.0 mi Calm Calm - N/A   Unknown
2:15 AM 58.6 °F 51.1 °F 76% 30.25 in 10.0 mi Calm Calm - N/A   Unknown
2:35 AM 58.6 °F 51.3 °F 76% 30.25 in 10.0 mi Calm Calm - N/A   Unknown
3:15 AM 58.5 °F 51.3 °F 77% 30.25 in 10.0 mi Calm Calm - N/A   Unknown
3:35 AM 58.3 °F 51.1 °F 77% 30.24 in 10.0 mi Calm Calm - N/A   Unknown
4:15 AM 57.2 °F 50.7 °F 79% 30.23 in 10.0 mi Calm Calm - N/A   Unknown
4:35 AM 57.0 °F 50.9 °F 80% 30.23 in 10.0 mi Calm Calm - N/A   Unknown
4:55 AM 57.9 °F 51.1 °F 78% 30.23 in 10.0 mi Calm Calm - N/A   Unknown
5:15 AM 57.7 °F 51.1 °F 78% 30.23 in 10.0 mi Calm Calm - N/A   Unknown
5:35 AM 56.7 °F 50.9 °F 81% 30.23 in 10.0 mi ESE 3.5 mph - N/A   Unknown
5:55 AM 55.9 °F 50.4 °F 82% 30.23 in 10.0 mi Calm Calm - N/A   Unknown
6:15 AM 55.9 °F 50.7 °F 83% 30.23 in 10.0 mi Calm Calm - N/A   Unknown
6:35 AM 55.6 °F 50.5 °F 83% 30.23 in 10.0 mi Calm Calm - N/A   Unknown
6:55 AM 55.2 °F 50.4 °F 84% 30.24 in 10.0 mi Calm Calm - N/A   Unknown
7:15 AM 55.0 °F 50.0 °F 83% 30.24 in 10.0 mi East 3.5 mph - N/A   Unknown
7:35 AM 55.0 °F 50.4 °F 84% 30.24 in 10.0 mi Calm Calm - N/A   Unknown
7:55 AM 56.5 °F 51.3 °F 83% 30.24 in 10.0 mi East 3.5 mph - N/A   Unknown
8:15 AM 57.9 °F 52.0 °F 81% 30.24 in 10.0 mi East 6.9 mph - N/A   Unknown
8:35 AM 59.2 °F 52.7 °F 79% 30.25 in 10.0 mi East 8.1 mph - N/A   Unknown
8:55 AM 59.7 °F 52.7 °F 78% 30.25 in 10.0 mi East 10.4 mph - N/A   Unknown
9:15 AM 60.8 °F 53.1 °F 76% 30.25 in 10.0 mi East 10.4 mph - N/A   Unknown
9:35 AM 62.8 °F 53.6 °F 72% 30.25 in 10.0 mi East 10.4 mph - N/A   Unknown
9:55 AM 64.8 °F 53.8 °F 68% 30.25 in 10.0 mi East 6.9 mph - N/A   Unknown
10:15 AM 66.4 °F 53.4 °F 63% 30.25 in 10.0 mi East 10.4 mph - N/A   Unknown
10:35 AM 67.6 °F 53.6 °F 61% 30.26 in 10.0 mi East 6.9 mph - N/A   Unknown
11:15 AM 70.5 °F 52.9 °F 54% 30.26 in 10.0 mi Calm Calm - N/A   Unknown
11:35 AM 72.3 °F 50.9 °F 47% 30.26 in 10.0 mi Calm Calm - N/A   Unknown
11:55 AM 73.2 °F 51.1 °F 46% 30.25 in 10.0 mi Calm Calm - N/A   Unknown
12:15 PM 74.3 °F 50.2 °F 43% 30.25 in 10.0 mi Calm Calm - N/A   Unknown
12:35 PM 75.6 °F 50.0 °F 41% 30.24 in 10.0 mi SSE 3.5 mph - N/A   Unknown
12:55 PM 76.3 °F 49.1 °F 38% 30.24 in 10.0 mi NNE 3.5 mph - N/A   Unknown
1:15 PM 75.6 °F 47.3 °F 37% 30.23 in 10.0 mi Calm Calm - N/A   Unknown
1:35 PM 75.6 °F 47.3 °F 37% 30.23 in 10.0 mi North 6.9 mph - N/A   Unknown
1:55 PM 75.4 °F 46.9 °F 36% 30.21 in 10.0 mi NE 3.5 mph - N/A   Unknown
2:15 PM 76.6 °F 47.7 °F 36% 30.20 in 10.0 mi East 3.5 mph - N/A   Unknown
2:35 PM 76.3 °F 46.0 °F 34% 30.19 in 10.0 mi Calm Calm - N/A   Unknown
2:55 PM 77.0 °F 47.5 °F 35% 30.19 in 10.0 mi Calm Calm - N/A   Unknown
3:15 PM 77.2 °F 47.1 °F 35% 30.18 in 10.0 mi WSW 3.5 mph - N/A   Unknown
3:35 PM 76.1 °F 47.8 °F 37% 30.18 in 10.0 mi West 5.8 mph - N/A   Unknown
3:55 PM 76.1 °F 48.4 °F 38% 30.17 in 10.0 mi WSW 3.5 mph - N/A   Unknown
4:15 PM 75.7 °F 49.1 °F 39% 30.16 in 10.0 mi WSW 3.5 mph - N/A   Unknown
4:35 PM 74.7 °F 50.5 °F 43% 30.16 in 10.0 mi WNW 9.2 mph - N/A Rain Light Rain
4:55 PM 73.6 °F 52.3 °F 47% 30.16 in 7.0 mi ESE 3.5 mph - 0.02 in Rain Light Rain
5:15 PM 75.4 °F 53.8 °F 47% 30.16 in 10.0 mi SW 9.2 mph - N/A   Overcast
5:35 PM 74.5 °F 53.2 °F 47% 30.16 in 10.0 mi SW 6.9 mph - N/A   Scattered Clouds
5:55 PM 72.9 °F 51.6 °F 47% 30.16 in 10.0 mi SSE 3.5 mph - N/A   Scattered Clouds
6:15 PM 72.7 °F 51.1 °F 47% 30.16 in 10.0 mi Calm Calm - N/A   Scattered Clouds
6:35 PM 72.7 °F 50.7 °F 46% 30.16 in 10.0 mi SE 3.5 mph - N/A   Overcast
6:55 PM 72.1 °F 52.0 °F 49% 30.16 in 10.0 mi East 3.5 mph - N/A   Overcast
7:15 PM 71.8 °F 53.1 °F 52% 30.16 in 10.0 mi Calm Calm - N/A   Overcast
7:35 PM 71.4 °F 52.3 °F 51% 30.16 in 10.0 mi Calm Calm - N/A   Overcast
7:55 PM 70.0 °F 53.6 °F 56% 30.17 in 10.0 mi Calm Calm - N/A   Scattered Clouds
8:15 PM 69.3 °F 53.6 °F 57% 30.17 in 10.0 mi Calm Calm - N/A   Mostly Cloudy
8:35 PM 68.4 °F 54.1 °F 60% 30.17 in 10.0 mi Calm Calm - N/A   Scattered Clouds
8:55 PM 66.0 °F 56.1 °F 70% 30.17 in 10.0 mi Calm Calm - N/A   Clear
9:15 PM 64.0 °F 56.1 °F 75% 30.17 in 10.0 mi Calm Calm - N/A   Scattered Clouds
9:35 PM 64.2 °F 55.2 °F 73% 30.18 in 10.0 mi Calm Calm - N/A   Scattered Clouds
9:55 PM 64.2 °F 54.7 °F 71% 30.17 in 10.0 mi Calm Calm - N/A   Scattered Clouds
10:15 PM 62.8 °F 54.3 °F 74% 30.18 in 10.0 mi Calm Calm - N/A   Scattered Clouds
10:35 PM 64.6 °F 53.2 °F 67% 30.18 in 10.0 mi Calm Calm - N/A   Mostly Cloudy
10:55 PM 64.0 °F 53.2 °F 68% 30.18 in 10.0 mi Calm Calm - N/A   Overcast
11:15 PM 64.6 °F 53.6 °F 68% 30.18 in 10.0 mi Calm Calm - N/A   Overcast
11:35 PM 63.9 °F 54.3 °F 71% 30.18 in 10.0 mi ESE 4.6 mph - N/A   Overcast
11:55 PM 63.0 °F 55.0 °F 75% 30.18 in 10.0 mi Calm Calm - N/A   Overcast